Time,TemperatureF,DewpointF,PressureIn,WindDirection,WindDirectionDegrees,WindSpeedMPH,WindSpeedGustMPH,Humidity,HourlyPrecipIn,Conditions,Clouds,dailyrainin,SoftwareType,DateUTC
2013-02-27 00:00:00,55.1,54.3,29.60,WSW,242,6.0,9.0,97,0.00,,---,0.55,VWS V14.01,2013-02-27 05:00:00,
2013-02-27 00:05:00,54.9,54.1,29.60,WSW,242,7.0,8.0,97,0.00,,---,0.00,VWS V14.01,2013-02-27 05:05:00,
2013-02-27 00:10:00,54.9,54.1,29.60,WSW,247,7.0,9.0,97,0.00,,---,0.00,VWS V14.01,2013-02-27 05:10:00,
2013-02-27 00:15:00,54.9,54.1,29.60,WSW,257,8.0,9.0,97,0.00,,---,0.00,VWS V14.01,2013-02-27 05:15:00,
2013-02-27 00:20:00,55.0,54.2,29.61,West,271,8.0,10.0,97,0.00,,---,0.00,VWS V14.01,2013-02-27 05:20:00,
2013-02-27 00:25:00,54.7,53.9,29.61,West,263,4.0,6.0,97,0.00,,---,0.00,VWS V14.01,2013-02-27 05:25:00,
2013-02-27 00:30:00,54.5,53.7,29.61,West,259,4.0,5.0,97,0.00,,---,0.00,VWS V14.01,2013-02-27 05:30:00,
2013-02-27 00:35:00,54.4,53.6,29.61,WSW,252,6.0,6.0,97,0.00,,---,0.00,VWS V14.01,2013-02-27 05:35:00,
2013-02-27 00:40:00,54.6,53.8,29.61,West,268,5.0,9.0,97,0.00,,---,0.00,VWS V14.01,2013-02-27 05:40:00,
2013-02-27 00:45:00,54.8,54.0,29.61,WSW,256,8.0,10.0,97,0.00,,---,0.00,VWS V14.01,2013-02-27 05:45:00,
2013-02-27 00:50:00,54.6,53.8,29.61,West,259,9.0,10.0,97,0.00,,---,0.00,VWS V14.01,2013-02-27 05:50:00,
2013-02-27 00:55:00,54.4,53.6,29.61,West,269,7.0,10.0,97,0.00,,---,0.00,VWS V14.01,2013-02-27 05:55:00,
2013-02-27 01:00:00,54.2,53.4,29.61,West,270,7.0,9.0,97,0.00,,---,0.00,VWS V14.01,2013-02-27 06:00:00,
2013-02-27 01:05:00,54.1,53.3,29.62,WSW,254,6.0,8.0,97,0.00,,---,0.00,VWS V14.01,2013-02-27 06:05:00,
2013-02-27 01:10:00,54.1,53.3,29.62,West,266,5.0,7.0,97,0.00,,---,0.00,VWS V14.01,2013-02-27 06:10:00,
2013-02-27 01:15:00,53.9,53.1,29.62,West,259,5.0,6.0,97,0.00,,---,0.00,VWS V14.01,2013-02-27 06:15:00,
2013-02-27 01:20:00,53.9,53.1,29.62,WSW,255,5.0,5.0,97,0.00,,---,0.00,VWS V14.01,2013-02-27 06:20:00,
2013-02-27 01:25:00,53.8,53.0,29.62,West,266,3.0,4.0,97,0.00,,---,0.00,VWS V14.01,2013-02-27 06:25:00,
2013-02-27 01:30:00,53.8,53.0,29.62,WSW,257,5.0,5.0,97,0.00,,---,0.00,VWS V14.01,2013-02-27 06:30:00,
2013-02-27 01:35:00,54.2,53.7,29.62,WSW,246,6.0,6.0,98,0.00,,---,0.00,VWS V14.01,2013-02-27 06:35:00,
2013-02-27 01:40:00,54.3,53.5,29.63,WSW,251,7.0,8.0,97,0.00,,---,0.00,VWS V14.01,2013-02-27 06:40:00,
2013-02-27 01:45:00,54.3,53.5,29.63,WSW,254,8.0,8.0,97,0.00,,---,0.00,VWS V14.01,2013-02-27 06:45:00,
2013-02-27 01:50:00,54.2,53.4,29.62,WSW,257,8.0,9.0,97,0.00,,---,0.00,VWS V14.01,2013-02-27 06:50:00,
2013-02-27 01:55:00,54.3,53.5,29.62,WSW,250,10.0,10.0,97,0.00,,---,0.00,VWS V14.01,2013-02-27 06:55:00,
2013-02-27 02:00:00,54.5,53.7,29.62,WSW,251,8.0,8.0,97,0.00,,---,0.00,VWS V14.01,2013-02-27 07:00:00,
2013-02-27 02:05:00,54.6,53.8,29.62,WSW,252,7.0,8.0,97,0.00,,---,0.00,VWS V14.01,2013-02-27 07:05:00,
2013-02-27 02:10:00,54.5,53.7,29.62,West,265,6.0,8.0,97,0.00,,---,0.00,VWS V14.01,2013-02-27 07:10:00,
2013-02-27 02:15:00,54.3,53.5,29.62,West,267,4.0,7.0,97,0.00,,---,0.00,VWS V14.01,2013-02-27 07:15:00,
2013-02-27 02:20:00,54.2,53.4,29.62,West,275,3.0,7.0,97,0.00,,---,0.00,VWS V14.01,2013-02-27 07:20:00,
2013-02-27 02:25:00,54.2,53.4,29.62,West,276,4.0,4.0,97,0.00,,---,0.00,VWS V14.01,2013-02-27 07:25:00,
2013-02-27 02:30:00,54.1,53.3,29.62,West,266,4.0,6.0,97,0.00,,---,0.00,VWS V14.01,2013-02-27 07:30:00,
2013-02-27 02:35:00,54.4,53.6,29.62,West,267,3.0,4.0,97,0.00,,---,0.00,VWS V14.01,2013-02-27 07:35:00,
2013-02-27 02:40:00,54.4,53.6,29.62,West,267,0.0,2.0,97,0.00,,---,0.00,VWS V14.01,2013-02-27 07:40:00,
2013-02-27 02:45:00,54.8,54.2,29.63,West,269,2.0,3.0,98,0.00,,---,0.00,VWS V14.01,2013-02-27 07:45:00,
2013-02-27 02:50:00,54.8,54.0,29.62,WNW,291,5.0,6.0,97,0.00,,---,0.00,VWS V14.01,2013-02-27 07:50:00,
2013-02-27 02:55:00,55.7,55.2,29.62,WNW,291,4.0,6.0,98,0.00,,---,0.00,VWS V14.01,2013-02-27 07:55:00,
2013-02-27 03:00:00,55.9,55.3,29.62,WNW,284,4.0,7.0,98,0.00,,---,0.00,VWS V14.01,2013-02-27 08:00:00,
2013-02-27 03:05:00,55.8,55.0,29.62,West,278,6.0,10.0,97,0.00,,---,0.00,VWS V14.01,2013-02-27 08:05:00,
2013-02-27 03:10:00,55.5,54.7,29.63,WNW,284,8.0,9.0,97,0.00,,---,0.00,VWS V14.01,2013-02-27 08:10:00,
2013-02-27 03:15:00,54.9,54.1,29.62,West,277,7.0,10.0,97,0.00,,---,0.00,VWS V14.01,2013-02-27 08:15:00,
2013-02-27 03:20:00,54.3,53.5,29.63,WNW,289,6.0,10.0,97,0.00,,---,0.00,VWS V14.01,2013-02-27 08:20:00,
2013-02-27 03:25:00,54.0,52.9,29.63,West,275,9.0,11.0,96,0.00,,---,0.00,VWS V14.01,2013-02-27 08:25:00,
2013-02-27 03:30:00,54.0,52.9,29.63,West,278,9.0,12.0,96,0.00,,---,0.00,VWS V14.01,2013-02-27 08:30:00,
2013-02-27 03:35:00,54.0,52.9,29.63,West,278,8.0,10.0,96,0.00,,---,0.00,VWS V14.01,2013-02-27 08:35:00,
2013-02-27 03:40:00,54.0,52.6,29.64,West,274,8.0,10.0,95,0.00,,---,0.00,VWS V14.01,2013-02-27 08:40:00,
2013-02-27 03:45:00,53.9,52.5,29.63,WNW,286,10.0,10.0,95,0.00,,---,0.00,VWS V14.01,2013-02-27 08:45:00,
2013-02-27 03:50:00,53.8,52.1,29.64,West,281,6.0,9.0,94,0.00,,---,0.00,VWS V14.01,2013-02-27 08:50:00,
2013-02-27 03:55:00,53.7,52.0,29.64,West,271,6.0,11.0,94,0.00,,---,0.00,VWS V14.01,2013-02-27 08:55:00,
2013-02-27 04:00:00,53.7,52.0,29.64,West,276,8.0,9.0,94,0.00,,---,0.00,VWS V14.01,2013-02-27 09:00:00,
2013-02-27 04:05:00,53.7,52.0,29.65,WSW,258,7.0,9.0,94,0.00,,---,0.00,VWS V14.01,2013-02-27 09:05:00,
2013-02-27 04:10:00,53.6,51.9,29.65,West,273,5.0,7.0,94,0.00,,---,0.00,VWS V14.01,2013-02-27 09:10:00,
2013-02-27 04:15:00,53.3,51.6,29.65,West,269,7.0,11.0,94,0.00,,---,0.00,VWS V14.01,2013-02-27 09:15:00,
2013-02-27 04:20:00,53.2,51.5,29.65,WNW,283,11.0,11.0,94,0.00,,---,0.00,VWS V14.01,2013-02-27 09:20:00,
2013-02-27 04:25:00,53.2,51.2,29.65,West,276,9.0,11.0,93,0.00,,---,0.00,VWS V14.01,2013-02-27 09:25:00,
2013-02-27 04:30:00,53.1,51.1,29.66,West,281,11.0,13.0,93,0.00,,---,0.00,VWS V14.01,2013-02-27 09:30:00,
2013-02-27 04:35:00,53.2,50.9,29.66,WNW,295,15.0,16.0,92,0.00,,---,0.00,VWS V14.01,2013-02-27 09:35:00,
2013-02-27 04:40:00,53.2,50.7,29.67,West,272,11.0,17.0,91,0.00,,---,0.00,VWS V14.01,2013-02-27 09:40:00,
2013-02-27 04:45:00,53.2,50.3,29.67,West,276,14.0,22.0,90,0.00,,---,0.00,VWS V14.01,2013-02-27 09:45:00,
2013-02-27 04:50:00,52.9,50.0,29.67,West,278,9.0,18.0,90,0.00,,---,0.00,VWS V14.01,2013-02-27 09:50:00,
2013-02-27 04:55:00,52.7,49.5,29.67,West,277,12.0,14.0,89,0.00,,---,0.00,VWS V14.01,2013-02-27 09:55:00,
2013-02-27 05:00:00,52.4,49.3,29.68,West,278,10.0,16.0,89,0.00,,---,0.00,VWS V14.01,2013-02-27 10:00:00,
2013-02-27 05:05:00,52.2,49.1,29.68,WNW,284,10.0,14.0,89,0.00,,---,0.00,VWS V14.01,2013-02-27 10:05:00,
2013-02-27 05:10:00,52.0,48.6,29.68,West,275,9.0,14.0,88,0.00,,---,0.00,VWS V14.01,2013-02-27 10:10:00,
2013-02-27 05:15:00,51.9,48.5,29.68,West,278,13.0,14.0,88,0.00,,---,0.00,VWS V14.01,2013-02-27 10:15:00,
2013-02-27 05:20:00,51.7,48.0,29.68,WNW,284,11.0,14.0,87,0.00,,---,0.00,VWS V14.01,2013-02-27 10:20:00,
2013-02-27 05:25:00,51.7,48.0,29.69,West,275,11.0,14.0,87,0.00,,---,0.00,VWS V14.01,2013-02-27 10:25:00,
2013-02-27 05:30:00,51.5,47.8,29.69,WNW,288,8.0,13.0,87,0.00,,---,0.00,VWS V14.01,2013-02-27 10:30:00,
2013-02-27 05:35:00,51.5,47.8,29.69,West,281,8.0,12.0,87,0.00,,---,0.00,VWS V14.01,2013-02-27 10:35:00,
2013-02-27 05:40:00,51.4,47.7,29.69,West,271,12.0,12.0,87,0.00,,---,0.00,VWS V14.01,2013-02-27 10:40:00,
2013-02-27 05:45:00,51.2,46.8,29.69,West,277,8.0,17.0,85,0.00,,---,0.00,VWS V14.01,2013-02-27 10:45:00,
2013-02-27 05:50:00,51.3,47.0,29.69,WNW,283,11.0,18.0,85,0.00,,---,0.00,VWS V14.01,2013-02-27 10:50:00,
2013-02-27 05:55:00,51.2,46.5,29.69,WSW,250,14.0,14.0,84,0.00,,---,0.00,VWS V14.01,2013-02-27 10:55:00,
2013-02-27 06:00:00,51.0,45.7,29.70,West,274,13.0,19.0,82,0.00,,---,0.00,VWS V14.01,2013-02-27 11:00:00,
2013-02-27 06:05:00,51.0,46.0,29.70,West,265,15.0,15.0,83,0.00,,---,0.00,VWS V14.01,2013-02-27 11:05:00,
2013-02-27 06:10:00,50.9,45.9,29.70,West,277,11.0,15.0,83,0.00,,---,0.00,VWS V14.01,2013-02-27 11:10:00,
2013-02-27 06:15:00,50.7,45.4,29.69,West,270,16.0,18.0,82,0.00,,---,0.00,VWS V14.01,2013-02-27 11:15:00,
2013-02-27 06:20:00,50.6,45.3,29.69,West,259,15.0,15.0,82,0.00,,---,0.00,VWS V14.01,2013-02-27 11:20:00,
2013-02-27 06:25:00,50.7,45.4,29.70,WSW,253,15.0,15.0,82,0.00,,---,0.00,VWS V14.01,2013-02-27 11:25:00,
2013-02-27 06:30:00,50.6,45.6,29.70,WSW,257,12.0,13.0,83,0.00,,---,0.00,VWS V14.01,2013-02-27 11:30:00,
2013-02-27 06:35:00,50.6,45.6,29.69,West,263,12.0,14.0,83,0.00,,---,0.00,VWS V14.01,2013-02-27 11:35:00,
2013-02-27 06:40:00,50.8,45.5,29.70,West,262,15.0,23.0,82,0.00,,---,0.00,VWS V14.01,2013-02-27 11:40:00,
2013-02-27 06:45:00,50.8,45.2,29.70,West,277,15.0,25.0,81,0.00,,---,0.00,VWS V14.01,2013-02-27 11:45:00,
2013-02-27 06:50:00,50.8,45.5,29.70,West,265,12.0,23.0,82,0.00,,---,0.00,VWS V14.01,2013-02-27 11:50:00,
2013-02-27 06:55:00,50.4,44.8,29.70,West,274,17.0,19.0,81,0.00,,---,0.00,VWS V14.01,2013-02-27 11:55:00,
2013-02-27 07:00:00,50.4,44.8,29.71,West,267,14.0,16.0,81,0.00,,---,0.00,VWS V14.01,2013-02-27 12:00:00,
2013-02-27 07:05:00,50.4,44.8,29.71,West,263,17.0,18.0,81,0.00,,---,0.00,VWS V14.01,2013-02-27 12:05:00,
2013-02-27 07:10:00,50.4,45.1,29.72,West,264,12.0,17.0,82,0.00,,---,0.00,VWS V14.01,2013-02-27 12:10:00,
2013-02-27 07:15:00,50.1,44.5,29.72,West,272,14.0,16.0,81,0.00,,---,0.00,VWS V14.01,2013-02-27 12:15:00,
2013-02-27 07:20:00,50.1,44.2,29.72,West,275,15.0,21.0,80,0.00,,---,0.00,VWS V14.01,2013-02-27 12:20:00,
2013-02-27 07:25:00,50.1,43.5,29.72,West,277,20.0,24.0,78,0.00,,---,0.00,VWS V14.01,2013-02-27 12:25:00,
2013-02-27 07:30:00,50.1,42.8,29.72,WNW,289,19.0,25.0,76,0.00,,---,0.00,VWS V14.01,2013-02-27 12:30:00,
2013-02-27 07:35:00,50.3,43.0,29.73,West,276,11.0,17.0,76,0.00,,---,0.00,VWS V14.01,2013-02-27 12:35:00,
2013-02-27 07:40:00,50.4,43.1,29.73,West,269,23.0,23.0,76,0.00,,---,0.00,VWS V14.01,2013-02-27 12:40:00,
2013-02-27 07:45:00,50.6,42.3,29.74,West,272,15.0,25.0,73,0.00,,---,0.00,VWS V14.01,2013-02-27 12:45:00,
2013-02-27 07:50:00,50.7,42.4,29.74,West,273,23.0,27.0,73,0.00,,---,0.00,VWS V14.01,2013-02-27 12:50:00,
2013-02-27 07:55:00,50.6,42.6,29.74,West,270,22.0,28.0,74,0.00,,---,0.00,VWS V14.01,2013-02-27 12:55:00,
2013-02-27 08:00:00,50.5,42.5,29.74,West,273,18.0,24.0,74,0.00,,---,0.00,VWS V14.01,2013-02-27 13:00:00,
2013-02-27 08:05:00,50.6,42.3,29.74,WNW,283,21.0,28.0,73,0.00,,---,0.00,VWS V14.01,2013-02-27 13:05:00,
2013-02-27 08:10:00,50.3,42.3,29.74,WNW,284,16.0,25.0,74,0.00,,---,0.00,VWS V14.01,2013-02-27 13:10:00,
2013-02-27 08:15:00,50.0,41.7,29.75,West,279,27.0,28.0,73,0.00,,---,0.00,VWS V14.01,2013-02-27 13:15:00,
2013-02-27 08:20:00,49.9,41.6,29.76,WNW,293,18.0,29.0,73,0.00,,---,0.00,VWS V14.01,2013-02-27 13:20:00,
2013-02-27 08:25:00,50.1,41.8,29.76,West,276,18.0,27.0,73,0.00,,---,0.00,VWS V14.01,2013-02-27 13:25:00,
2013-02-27 08:30:00,50.4,41.7,29.76,West,280,16.0,28.0,72,0.00,,---,0.00,VWS V14.01,2013-02-27 13:30:00,
2013-02-27 08:35:00,50.7,42.4,29.76,West,260,21.0,21.0,73,0.00,,---,0.00,VWS V14.01,2013-02-27 13:35:00,
2013-02-27 08:40:00,50.7,41.7,29.76,West,273,21.0,28.0,71,0.00,,---,0.00,VWS V14.01,2013-02-27 13:40:00,
2013-02-27 08:45:00,50.7,42.0,29.77,West,277,19.0,26.0,72,0.00,,---,0.00,VWS V14.01,2013-02-27 13:45:00,
2013-02-27 08:50:00,50.5,41.8,29.76,WNW,293,17.0,22.0,72,0.00,,---,0.00,VWS V14.01,2013-02-27 13:50:00,
2013-02-27 08:55:00,50.7,42.0,29.76,West,276,21.0,22.0,72,0.00,,---,0.00,VWS V14.01,2013-02-27 13:55:00,
2013-02-27 09:00:00,50.8,42.1,29.76,West,273,13.0,26.0,72,0.00,,---,0.00,VWS V14.01,2013-02-27 14:00:00,
2013-02-27 09:05:00,51.1,42.4,29.77,West,273,13.0,20.0,72,0.00,,---,0.00,VWS V14.01,2013-02-27 14:05:00,
2013-02-27 09:10:00,50.8,41.8,29.77,West,275,17.0,24.0,71,0.00,,---,0.00,VWS V14.01,2013-02-27 14:10:00,
2013-02-27 09:15:00,50.7,42.0,29.77,West,273,15.0,20.0,72,0.00,,---,0.00,VWS V14.01,2013-02-27 14:15:00,
2013-02-27 09:20:00,50.5,41.8,29.77,WNW,285,19.0,22.0,72,0.00,,---,0.00,VWS V14.01,2013-02-27 14:20:00,
2013-02-27 09:25:00,50.3,41.6,29.77,WNW,296,17.0,24.0,72,0.00,,---,0.00,VWS V14.01,2013-02-27 14:25:00,
2013-02-27 09:30:00,50.4,42.1,29.77,WNW,289,14.0,21.0,73,0.00,,---,0.00,VWS V14.01,2013-02-27 14:30:00,
2013-02-27 09:35:00,50.4,41.7,29.77,West,273,12.0,21.0,72,0.00,,---,0.00,VWS V14.01,2013-02-27 14:35:00,
2013-02-27 09:40:00,50.7,42.4,29.77,West,272,17.0,20.0,73,0.00,,---,0.00,VWS V14.01,2013-02-27 14:40:00,
2013-02-27 09:45:00,50.7,42.4,29.77,WNW,289,24.0,24.0,73,0.00,,---,0.00,VWS V14.01,2013-02-27 14:45:00,
2013-02-27 09:50:00,50.6,42.3,29.77,WNW,283,13.0,22.0,73,0.00,,---,0.00,VWS V14.01,2013-02-27 14:50:00,
2013-02-27 09:55:00,51.1,42.8,29.77,WNW,296,14.0,20.0,73,0.00,,---,0.00,VWS V14.01,2013-02-27 14:55:00,
2013-02-27 10:00:00,51.5,42.8,29.77,WNW,289,13.0,21.0,72,0.00,,---,0.00,VWS V14.01,2013-02-27 15:00:00,
2013-02-27 10:05:00,51.5,42.8,29.77,West,273,16.0,19.0,72,0.00,,---,0.00,VWS V14.01,2013-02-27 15:05:00,
2013-02-27 10:10:00,51.9,43.2,29.77,NW,317,11.0,19.0,72,0.00,,---,0.00,VWS V14.01,2013-02-27 15:10:00,
2013-02-27 10:15:00,52.0,42.9,29.78,WNW,295,11.0,17.0,71,0.00,,---,0.00,VWS V14.01,2013-02-27 15:15:00,
2013-02-27 10:20:00,52.0,42.9,29.78,WNW,302,12.0,15.0,71,0.00,,---,0.00,VWS V14.01,2013-02-27 15:20:00,
2013-02-27 10:25:00,52.3,43.5,29.79,West,281,15.0,15.0,72,0.00,,---,0.00,VWS V14.01,2013-02-27 15:25:00,
2013-02-27 10:30:00,52.4,43.3,29.79,NW,309,13.0,18.0,71,0.00,,---,0.00,VWS V14.01,2013-02-27 15:30:00,
2013-02-27 10:35:00,52.0,42.5,29.79,West,279,10.0,15.0,70,0.00,,---,0.00,VWS V14.01,2013-02-27 15:35:00,
2013-02-27 10:40:00,52.4,43.3,29.78,West,274,16.0,18.0,71,0.00,,---,0.00,VWS V14.01,2013-02-27 15:40:00,
2013-02-27 10:45:00,52.4,43.3,29.79,WNW,282,15.0,18.0,71,0.00,,---,0.00,VWS V14.01,2013-02-27 15:45:00,
2013-02-27 10:50:00,52.5,43.0,29.79,NW,306,11.0,16.0,70,0.00,,---,0.00,VWS V14.01,2013-02-27 15:50:00,
2013-02-27 10:55:00,52.7,43.2,29.79,West,280,12.0,16.0,70,0.00,,---,0.00,VWS V14.01,2013-02-27 15:55:00,
2013-02-27 11:00:00,52.6,43.1,29.78,WNW,302,12.0,14.0,70,0.00,,---,0.00,VWS V14.01,2013-02-27 16:00:00,
2013-02-27 11:05:00,52.6,43.1,29.78,West,267,15.0,17.0,70,0.00,,---,0.00,VWS V14.01,2013-02-27 16:05:00,
2013-02-27 11:10:00,53.1,43.6,29.78,NW,313,11.0,15.0,70,0.00,,---,0.00,VWS V14.01,2013-02-27 16:10:00,
2013-02-27 11:15:00,53.3,43.4,29.78,WNW,284,11.0,17.0,69,0.00,,---,0.00,VWS V14.01,2013-02-27 16:15:00,
2013-02-27 11:20:00,53.1,43.2,29.78,West,281,11.0,17.0,69,0.00,,---,0.00,VWS V14.01,2013-02-27 16:20:00,
2013-02-27 11:25:00,53.2,43.3,29.78,West,265,12.0,15.0,69,0.00,,---,0.00,VWS V14.01,2013-02-27 16:25:00,
2013-02-27 11:30:00,53.2,43.7,29.78,WNW,295,5.0,14.0,70,0.00,,---,0.00,VWS V14.01,2013-02-27 16:30:00,
2013-02-27 11:35:00,53.5,43.6,29.78,West,259,9.0,12.0,69,0.00,,---,0.00,VWS V14.01,2013-02-27 16:35:00,
2013-02-27 11:40:00,53.7,43.8,29.77,West,276,9.0,11.0,69,0.00,,---,0.00,VWS V14.01,2013-02-27 16:40:00,
2013-02-27 11:45:00,54.1,44.2,29.77,WNW,282,12.0,13.0,69,0.00,,---,0.00,VWS V14.01,2013-02-27 16:45:00,
2013-02-27 11:50:00,54.2,43.5,29.77,WNW,284,9.0,13.0,67,0.00,,---,0.00,VWS V14.01,2013-02-27 16:50:00,
2013-02-27 11:55:00,54.5,43.4,29.77,WNW,283,11.0,13.0,66,0.00,,---,0.00,VWS V14.01,2013-02-27 16:55:00,
2013-02-27 12:00:00,54.1,43.4,29.77,WNW,298,5.0,11.0,67,0.00,,---,0.00,VWS V14.01,2013-02-27 17:00:00,
2013-02-27 12:05:00,54.6,43.9,29.77,WNW,284,9.0,17.0,67,0.00,,---,0.00,VWS V14.01,2013-02-27 17:05:00,
2013-02-27 12:10:00,55.0,43.9,29.77,WNW,292,10.0,14.0,66,0.00,,---,0.00,VWS V14.01,2013-02-27 17:10:00,
2013-02-27 12:15:00,55.0,43.9,29.77,West,270,11.0,15.0,66,0.00,,---,0.00,VWS V14.01,2013-02-27 17:15:00,
2013-02-27 12:20:00,55.0,44.3,29.78,WSW,248,11.0,17.0,67,0.00,,---,0.00,VWS V14.01,2013-02-27 17:20:00,
2013-02-27 12:25:00,54.8,44.5,29.77,WSW,248,11.0,16.0,68,0.00,,---,0.00,VWS V14.01,2013-02-27 17:25:00,
2013-02-27 12:30:00,54.7,44.4,29.77,West,270,12.0,18.0,68,0.00,,---,0.00,VWS V14.01,2013-02-27 17:30:00,
2013-02-27 12:35:00,54.2,44.3,29.77,WSW,248,10.0,17.0,69,0.00,,---,0.00,VWS V14.01,2013-02-27 17:35:00,
2013-02-27 12:40:00,54.0,45.2,29.76,West,270,9.0,14.0,72,0.00,,---,0.00,VWS V14.01,2013-02-27 17:40:00,
2013-02-27 12:45:00,54.5,45.7,29.76,West,270,9.0,18.0,72,0.00,,---,0.00,VWS V14.01,2013-02-27 17:45:00,
2013-02-27 12:50:00,54.1,44.2,29.75,WSW,248,10.0,13.0,69,0.00,,---,0.00,VWS V14.01,2013-02-27 17:50:00,
2013-02-27 12:55:00,53.9,44.3,29.75,WSW,248,9.0,12.0,70,0.00,,---,0.00,VWS V14.01,2013-02-27 17:55:00,
2013-02-27 13:00:00,53.4,44.6,29.75,WSW,248,10.0,13.0,72,0.00,,---,0.00,VWS V14.01,2013-02-27 18:00:00,
2013-02-27 13:05:00,53.4,44.2,29.74,WSW,248,8.0,14.0,71,0.00,,---,0.00,VWS V14.01,2013-02-27 18:05:00,
2013-02-27 13:10:00,53.4,45.0,29.74,WSW,248,9.0,15.0,73,0.00,,---,0.00,VWS V14.01,2013-02-27 18:10:00,
2013-02-27 13:15:00,53.4,44.2,29.74,WSW,248,8.0,10.0,71,0.00,,---,0.00,VWS V14.01,2013-02-27 18:15:00,
2013-02-27 13:20:00,53.5,45.4,29.74,SW,225,9.0,12.0,74,0.00,,---,0.00,VWS V14.01,2013-02-27 18:20:00,
2013-02-27 13:25:00,53.1,45.4,29.74,SW,225,11.0,14.0,75,0.00,,---,0.00,VWS V14.01,2013-02-27 18:25:00,
2013-02-27 13:30:00,53.0,45.3,29.74,SW,225,10.0,13.0,75,0.00,,---,0.00,VWS V14.01,2013-02-27 18:30:00,
2013-02-27 13:35:00,52.9,45.2,29.74,SW,225,10.0,13.0,75,0.00,,---,0.00,VWS V14.01,2013-02-27 18:35:00,
2013-02-27 13:40:00,53.1,45.4,29.74,SW,225,10.0,13.0,75,0.00,,---,0.00,VWS V14.01,2013-02-27 18:40:00,
2013-02-27 13:45:00,53.1,45.4,29.74,WSW,248,10.0,11.0,75,0.00,,---,0.00,VWS V14.01,2013-02-27 18:45:00,
2013-02-27 13:50:00,53.3,45.2,29.74,WSW,248,10.0,13.0,74,0.00,,---,0.00,VWS V14.01,2013-02-27 18:50:00,
2013-02-27 13:55:00,53.4,45.7,29.74,WSW,248,10.0,12.0,75,0.00,,---,0.00,VWS V14.01,2013-02-27 18:55:00,
2013-02-27 14:00:00,53.3,45.6,29.74,SW,225,11.0,15.0,75,0.00,,---,0.00,VWS V14.01,2013-02-27 19:00:00,
2013-02-27 14:05:00,52.9,45.2,29.74,SW,225,14.0,16.0,75,0.00,,---,0.00,VWS V14.01,2013-02-27 19:05:00,
2013-02-27 14:10:00,52.9,45.2,29.74,SW,225,15.0,18.0,75,0.00,,---,0.00,VWS V14.01,2013-02-27 19:10:00,
2013-02-27 14:15:00,53.0,45.7,29.74,SW,225,15.0,18.0,76,0.00,,---,0.00,VWS V14.01,2013-02-27 19:15:00,
2013-02-27 14:20:00,52.8,45.5,29.74,SW,225,16.0,18.0,76,0.00,,---,0.00,VWS V14.01,2013-02-27 19:20:00,
2013-02-27 14:25:00,52.8,45.8,29.75,SW,225,15.0,19.0,77,0.00,,---,0.00,VWS V14.01,2013-02-27 19:25:00,
2013-02-27 14:30:00,52.7,45.7,29.75,SW,225,16.0,19.0,77,0.00,,---,0.00,VWS V14.01,2013-02-27 19:30:00,
2013-02-27 14:35:00,52.7,45.7,29.75,SW,225,13.0,18.0,77,0.00,,---,0.00,VWS V14.01,2013-02-27 19:35:00,
2013-02-27 14:40:00,52.8,45.8,29.75,SW,225,14.0,18.0,77,0.00,,---,0.00,VWS V14.01,2013-02-27 19:40:00,
2013-02-27 14:45:00,52.9,46.2,29.75,SW,225,13.0,19.0,78,0.00,,---,0.00,VWS V14.01,2013-02-27 19:45:00,
2013-02-27 14:50:00,52.9,46.2,29.74,SW,225,14.0,18.0,78,0.00,,---,0.00,VWS V14.01,2013-02-27 19:50:00,
2013-02-27 14:55:00,52.8,45.8,29.75,SW,225,13.0,18.0,77,0.00,,---,0.00,VWS V14.01,2013-02-27 19:55:00,
2013-02-27 15:00:00,52.8,45.8,29.75,SW,225,13.0,16.0,77,0.00,,---,0.00,VWS V14.01,2013-02-27 20:00:00,
2013-02-27 15:05:00,52.9,46.6,29.75,SW,225,13.0,18.0,79,0.00,,---,0.00,VWS V14.01,2013-02-27 20:05:00,
2013-02-27 15:10:00,52.9,46.2,29.74,SW,225,13.0,18.0,78,0.00,,---,0.00,VWS V14.01,2013-02-27 20:10:00,
2013-02-27 15:15:00,52.7,46.4,29.74,SW,225,13.0,17.0,79,0.00,,---,0.00,VWS V14.01,2013-02-27 20:15:00,
2013-02-27 15:20:00,52.6,46.0,29.74,SW,225,14.0,18.0,78,0.00,,---,0.00,VWS V14.01,2013-02-27 20:20:00,
2013-02-27 15:25:00,52.8,46.5,29.74,SW,225,15.0,19.0,79,0.00,,---,0.00,VWS V14.01,2013-02-27 20:25:00,
2013-02-27 15:30:00,52.8,46.5,29.74,SW,225,16.0,21.0,79,0.00,,---,0.00,VWS V14.01,2013-02-27 20:30:00,
2013-02-27 15:35:00,52.6,46.3,29.75,SW,225,17.0,22.0,79,0.00,,---,0.00,VWS V14.01,2013-02-27 20:35:00,
2013-02-27 15:40:00,52.4,46.4,29.74,SW,225,15.0,20.0,80,0.00,,---,0.00,VWS V14.01,2013-02-27 20:40:00,
2013-02-27 15:45:00,52.4,46.4,29.74,SW,225,15.0,19.0,80,0.00,,---,0.00,VWS V14.01,2013-02-27 20:45:00,
2013-02-27 15:50:00,52.3,46.3,29.74,SW,225,14.0,19.0,80,0.00,,---,0.00,VWS V14.01,2013-02-27 20:50:00,
2013-02-27 15:55:00,52.2,46.2,29.74,SW,225,15.0,20.0,80,0.00,,---,0.00,VWS V14.01,2013-02-27 20:55:00,
2013-02-27 16:00:00,52.3,46.7,29.74,SW,225,15.0,21.0,81,0.00,,---,0.00,VWS V14.01,2013-02-27 21:00:00,
2013-02-27 16:05:00,52.2,46.5,29.75,WSW,248,15.0,19.0,81,0.00,,---,0.00,VWS V14.01,2013-02-27 21:05:00,
2013-02-27 16:10:00,52.2,46.2,29.74,WSW,248,16.0,22.0,80,0.00,,---,0.00,VWS V14.01,2013-02-27 21:10:00,
2013-02-27 16:15:00,52.3,46.3,29.74,WSW,248,17.0,19.0,80,0.00,,---,0.00,VWS V14.01,2013-02-27 21:15:00,
2013-02-27 16:20:00,52.3,46.3,29.74,WSW,248,17.0,21.0,80,0.00,,---,0.00,VWS V14.01,2013-02-27 21:20:00,
2013-02-27 16:25:00,52.4,46.8,29.74,WSW,248,15.0,18.0,81,0.00,,---,0.00,VWS V14.01,2013-02-27 21:25:00,
2013-02-27 16:30:00,52.4,46.8,29.75,WSW,248,16.0,19.0,81,0.00,,---,0.00,VWS V14.01,2013-02-27 21:30:00,
2013-02-27 16:35:00,52.5,47.2,29.75,WSW,248,14.0,17.0,82,0.00,,---,0.00,VWS V14.01,2013-02-27 21:35:00,
2013-02-27 16:40:00,52.3,46.7,29.75,WSW,248,17.0,20.0,81,0.00,,---,0.00,VWS V14.01,2013-02-27 21:40:00,
2013-02-27 16:45:00,52.2,46.2,29.74,WSW,248,15.0,19.0,80,0.00,,---,0.00,VWS V14.01,2013-02-27 21:45:00,
2013-02-27 16:50:00,52.3,47.0,29.74,WSW,248,13.0,18.0,82,0.00,,---,0.00,VWS V14.01,2013-02-27 21:50:00,
2013-02-27 16:55:00,52.1,46.1,29.74,WSW,248,16.0,21.0,80,0.00,,---,0.00,VWS V14.01,2013-02-27 21:55:00,
2013-02-27 17:00:00,52.4,47.1,29.74,WSW,248,15.0,21.0,82,0.00,,---,0.00,VWS V14.01,2013-02-27 22:00:00,
2013-02-27 17:05:00,52.3,47.3,29.74,WSW,248,14.0,17.0,83,0.00,,---,0.00,VWS V14.01,2013-02-27 22:05:00,
2013-02-27 17:10:00,52.3,47.0,29.75,SW,225,14.0,18.0,82,0.00,,---,0.00,VWS V14.01,2013-02-27 22:10:00,
2013-02-27 17:15:00,52.3,47.0,29.75,WSW,248,14.0,18.0,82,0.00,,---,0.00,VWS V14.01,2013-02-27 22:15:00,
2013-02-27 17:20:00,52.3,47.0,29.75,WSW,248,15.0,19.0,82,0.00,,---,0.00,VWS V14.01,2013-02-27 22:20:00,
2013-02-27 17:25:00,52.4,47.1,29.74,WSW,248,15.0,18.0,82,0.00,,---,0.00,VWS V14.01,2013-02-27 22:25:00,
2013-02-27 17:30:00,52.4,47.1,29.74,WSW,248,16.0,19.0,82,0.00,,---,0.00,VWS V14.01,2013-02-27 22:30:00,
2013-02-27 17:35:00,52.4,47.1,29.75,WSW,248,15.0,18.0,82,0.00,,---,0.00,VWS V14.01,2013-02-27 22:35:00,
2013-02-27 17:40:00,52.4,47.1,29.75,WSW,248,15.0,17.0,82,0.00,,---,0.00,VWS V14.01,2013-02-27 22:40:00,
2013-02-27 17:45:00,52.5,47.5,29.74,WSW,248,14.0,18.0,83,0.00,,---,0.00,VWS V14.01,2013-02-27 22:45:00,
2013-02-27 17:50:00,52.5,47.2,29.74,WSW,248,14.0,17.0,82,0.00,,---,0.00,VWS V14.01,2013-02-27 22:50:00,
2013-02-27 17:55:00,52.5,47.2,29.74,WSW,248,13.0,15.0,82,0.00,,---,0.00,VWS V14.01,2013-02-27 22:55:00,
2013-02-27 18:00:00,52.5,47.5,29.74,WSW,248,13.0,18.0,83,0.00,,---,0.00,VWS V14.01,2013-02-27 23:00:00,
2013-02-27 18:05:00,52.4,47.4,29.74,WSW,248,13.0,17.0,83,0.00,,---,0.00,VWS V14.01,2013-02-27 23:05:00,
2013-02-27 18:10:00,52.6,47.9,29.74,WSW,248,13.0,15.0,84,0.00,,---,0.00,VWS V14.01,2013-02-27 23:10:00,
2013-02-27 18:15:00,52.5,47.5,29.74,WSW,248,14.0,17.0,83,0.00,,---,0.00,VWS V14.01,2013-02-27 23:15:00,
2013-02-27 18:20:00,52.6,47.6,29.74,WSW,248,15.0,19.0,83,0.00,,---,0.00,VWS V14.01,2013-02-27 23:20:00,
2013-02-27 18:25:00,52.5,47.2,29.74,WSW,248,15.0,18.0,82,0.00,,---,0.00,VWS V14.01,2013-02-27 23:25:00,
2013-02-27 18:30:00,52.6,47.6,29.75,WSW,248,13.0,16.0,83,0.00,,---,0.00,VWS V14.01,2013-02-27 23:30:00,
2013-02-27 18:35:00,52.5,47.2,29.75,WSW,248,16.0,18.0,82,0.00,,---,0.00,VWS V14.01,2013-02-27 23:35:00,
2013-02-27 18:40:00,52.6,47.6,29.74,WSW,248,15.0,18.0,83,0.00,,---,0.00,VWS V14.01,2013-02-27 23:40:00,
2013-02-27 18:45:00,52.6,47.3,29.74,WSW,248,16.0,21.0,82,0.00,,---,0.00,VWS V14.01,2013-02-27 23:45:00,
2013-02-27 18:50:00,52.7,47.7,29.74,WSW,248,17.0,21.0,83,0.00,,---,0.00,VWS V14.01,2013-02-27 23:50:00,
2013-02-27 18:55:00,52.7,47.7,29.75,WSW,248,18.0,23.0,83,0.00,,---,0.00,VWS V14.01,2013-02-27 23:55:00,
2013-02-27 19:00:00,52.7,48.0,29.75,WSW,248,17.0,21.0,84,0.00,,---,0.00,VWS V14.01,2013-02-28 00:00:00,
2013-02-27 19:05:00,52.5,47.8,29.75,WSW,248,17.0,24.0,84,0.00,,---,0.00,VWS V14.01,2013-02-28 00:05:00,
2013-02-27 19:10:00,52.5,47.8,29.75,WSW,248,19.0,25.0,84,0.00,,---,0.00,VWS V14.01,2013-02-28 00:10:00,
2013-02-27 19:15:00,52.5,47.8,29.75,WSW,248,19.0,24.0,84,0.00,,---,0.00,VWS V14.01,2013-02-28 00:15:00,
2013-02-27 19:20:00,52.4,47.4,29.75,WSW,248,21.0,27.0,83,0.00,,---,0.00,VWS V14.01,2013-02-28 00:20:00,
2013-02-27 19:25:00,52.4,47.4,29.75,WSW,248,21.0,26.0,83,0.00,,---,0.00,VWS V14.01,2013-02-28 00:25:00,
2013-02-27 19:30:00,52.3,47.6,29.75,WSW,248,22.0,25.0,84,0.00,,---,0.00,VWS V14.01,2013-02-28 00:30:00,
2013-02-27 19:35:00,52.4,47.7,29.75,WSW,248,21.0,27.0,84,0.00,,---,0.00,VWS V14.01,2013-02-28 00:35:00,
2013-02-27 19:40:00,52.4,47.7,29.75,WSW,248,22.0,26.0,84,0.00,,---,0.00,VWS V14.01,2013-02-28 00:40:00,
2013-02-27 19:45:00,52.3,47.6,29.75,WSW,248,22.0,26.0,84,0.00,,---,0.00,VWS V14.01,2013-02-28 00:45:00,
2013-02-27 19:50:00,52.3,47.6,29.75,WSW,248,21.0,26.0,84,0.00,,---,0.00,VWS V14.01,2013-02-28 00:50:00,
2013-02-27 19:55:00,52.3,47.6,29.75,WSW,248,21.0,25.0,84,0.00,,---,0.00,VWS V14.01,2013-02-28 00:55:00,
2013-02-27 20:00:00,52.3,47.6,29.75,WSW,248,22.0,27.0,84,0.00,,---,0.00,VWS V14.01,2013-02-28 01:00:00,
2013-02-27 20:05:00,52.3,47.6,29.75,WSW,248,22.0,27.0,84,0.00,,---,0.00,VWS V14.01,2013-02-28 01:05:00,
2013-02-27 20:10:00,52.3,47.6,29.75,WSW,248,22.0,27.0,84,0.00,,---,0.00,VWS V14.01,2013-02-28 01:10:00,
2013-02-27 20:15:00,52.3,47.9,29.74,WSW,248,21.0,25.0,85,0.00,,---,0.00,VWS V14.01,2013-02-28 01:15:00,
2013-02-27 20:20:00,52.4,48.3,29.75,WSW,248,20.0,24.0,86,0.00,,---,0.00,VWS V14.01,2013-02-28 01:20:00,
2013-02-27 20:25:00,52.3,47.9,29.75,WSW,248,22.0,26.0,85,0.00,,---,0.00,VWS V14.01,2013-02-28 01:25:00,
2013-02-27 20:30:00,52.3,48.2,29.75,WSW,248,21.0,25.0,86,0.00,,---,0.00,VWS V14.01,2013-02-28 01:30:00,
2013-02-27 20:35:00,52.3,48.2,29.75,WSW,248,20.0,25.0,86,0.00,,---,0.00,VWS V14.01,2013-02-28 01:35:00,
2013-02-27 20:40:00,52.3,48.2,29.75,WSW,248,20.0,26.0,86,0.00,,---,0.00,VWS V14.01,2013-02-28 01:40:00,
2013-02-27 20:45:00,52.2,48.2,29.75,WSW,248,22.0,26.0,86,0.00,,---,0.00,VWS V14.01,2013-02-28 01:45:00,
2013-02-27 20:50:00,52.3,48.2,29.76,WSW,248,22.0,26.0,86,0.00,,---,0.00,VWS V14.01,2013-02-28 01:50:00,
2013-02-27 20:55:00,52.3,48.2,29.75,West,270,21.0,25.0,86,0.00,,---,0.00,VWS V14.01,2013-02-28 01:55:00,
2013-02-27 21:00:00,52.3,48.2,29.75,West,270,20.0,23.0,86,0.00,,---,0.00,VWS V14.01,2013-02-28 02:00:00,
2013-02-27 21:05:00,52.3,48.2,29.75,West,270,20.0,23.0,86,0.00,,---,0.00,VWS V14.01,2013-02-28 02:05:00,
2013-02-27 21:10:00,52.3,48.2,29.75,West,270,20.0,22.0,86,0.00,,---,0.00,VWS V14.01,2013-02-28 02:10:00,
2013-02-27 21:15:00,52.2,48.2,29.75,West,270,21.0,24.0,86,0.00,,---,0.00,VWS V14.01,2013-02-28 02:15:00,
2013-02-27 21:20:00,52.3,48.2,29.75,WSW,248,20.0,24.0,86,0.00,,---,0.00,VWS V14.01,2013-02-28 02:20:00,
2013-02-27 21:25:00,52.3,48.2,29.75,WSW,248,19.0,23.0,86,0.00,,---,0.00,VWS V14.01,2013-02-28 02:25:00,
2013-02-27 21:30:00,52.2,48.2,29.75,West,270,20.0,24.0,86,0.00,,---,0.00,VWS V14.01,2013-02-28 02:30:00,
2013-02-27 21:35:00,52.2,48.2,29.75,West,270,20.0,22.0,86,0.00,,---,0.00,VWS V14.01,2013-02-28 02:35:00,
2013-02-27 21:40:00,52.1,48.0,29.75,West,270,20.0,23.0,86,0.00,,---,0.00,VWS V14.01,2013-02-28 02:40:00,
2013-02-27 21:45:00,52.1,48.0,29.75,West,270,20.0,23.0,86,0.00,,---,0.00,VWS V14.01,2013-02-28 02:45:00,
2013-02-27 21:50:00,52.1,48.0,29.75,West,270,20.0,23.0,86,0.00,,---,0.00,VWS V14.01,2013-02-28 02:50:00,
2013-02-27 21:55:00,52.1,48.4,29.75,West,270,19.0,22.0,87,0.00,,---,0.00,VWS V14.01,2013-02-28 02:55:00,
2013-02-27 22:00:00,52.1,48.4,29.75,WSW,248,20.0,23.0,87,0.00,,---,0.00,VWS V14.01,2013-02-28 03:00:00,
2013-02-27 22:05:00,52.1,48.4,29.75,West,270,19.0,22.0,87,0.00,,---,0.00,VWS V14.01,2013-02-28 03:05:00,
2013-02-27 22:10:00,52.1,48.4,29.74,West,270,19.0,22.0,87,0.00,,---,0.00,VWS V14.01,2013-02-28 03:10:00,
2013-02-27 22:15:00,52.1,48.4,29.74,WSW,248,18.0,22.0,87,0.00,,---,0.00,VWS V14.01,2013-02-28 03:15:00,
2013-02-27 22:20:00,52.1,48.4,29.74,WSW,248,18.0,21.0,87,0.00,,---,0.00,VWS V14.01,2013-02-28 03:20:00,
2013-02-27 22:25:00,52.0,48.3,29.74,WSW,248,19.0,23.0,87,0.00,,---,0.00,VWS V14.01,2013-02-28 03:25:00,
2013-02-27 22:30:00,52.1,48.7,29.74,West,270,19.0,22.0,88,0.00,,---,0.00,VWS V14.01,2013-02-28 03:30:00,
2013-02-27 22:35:00,52.1,48.7,29.74,West,270,18.0,21.0,88,0.00,,---,0.00,VWS V14.01,2013-02-28 03:35:00,
2013-02-27 22:40:00,52.1,48.7,29.74,West,270,19.0,21.0,88,0.00,,---,0.00,VWS V14.01,2013-02-28 03:40:00,
2013-02-27 22:45:00,52.1,48.7,29.74,West,270,18.0,21.0,88,0.00,,---,0.00,VWS V14.01,2013-02-28 03:45:00,
2013-02-27 22:50:00,52.1,48.7,29.74,West,270,18.0,21.0,88,0.00,,---,0.00,VWS V14.01,2013-02-28 03:50:00,
2013-02-27 22:55:00,52.1,48.7,29.74,West,270,16.0,19.0,88,0.00,,---,0.00,VWS V14.01,2013-02-28 03:55:00,
2013-02-27 23:00:00,52.1,48.7,29.74,West,270,17.0,20.0,88,0.00,,---,0.00,VWS V14.01,2013-02-28 04:00:00,
2013-02-27 23:05:00,52.0,48.6,29.74,West,270,18.0,21.0,88,0.00,,---,0.00,VWS V14.01,2013-02-28 04:05:00,
2013-02-27 23:10:00,52.1,48.7,29.74,West,270,17.0,21.0,88,0.00,,---,0.00,VWS V14.01,2013-02-28 04:10:00,
2013-02-27 23:15:00,52.0,48.6,29.74,West,270,16.0,20.0,88,0.00,,---,0.00,VWS V14.01,2013-02-28 04:15:00,
2013-02-27 23:20:00,51.7,48.3,29.73,West,270,11.0,13.0,88,0.00,,---,0.00,VWS V14.01,2013-02-28 04:20:00,
2013-02-27 23:25:00,51.4,48.0,29.73,West,270,12.0,17.0,88,0.00,,---,0.00,VWS V14.01,2013-02-28 04:25:00,
2013-02-27 23:30:00,51.4,48.0,29.73,West,270,13.0,18.0,88,0.00,,---,0.00,VWS V14.01,2013-02-28 04:30:00,
2013-02-27 23:35:00,51.4,48.3,29.73,West,270,13.0,17.0,89,0.00,,---,0.00,VWS V14.01,2013-02-28 04:35:00,
2013-02-27 23:40:00,51.2,47.8,29.73,West,270,12.0,16.0,88,0.00,,---,0.00,VWS V14.01,2013-02-28 04:40:00,
2013-02-27 23:45:00,51.2,47.8,29.73,West,270,13.0,18.0,88,0.00,,---,0.00,VWS V14.01,2013-02-28 04:45:00,
2013-02-27 23:50:00,51.1,47.4,29.73,West,270,13.0,16.0,87,0.00,,---,0.00,VWS V14.01,2013-02-28 04:50:00,
2013-02-27 23:55:00,51.0,47.3,29.72,West,270,12.0,15.0,87,0.00,,---,0.00,VWS V14.01,2013-02-28 04:55:00,